Weather History for Morganton, NC

Change the Weather History Date:

Friday, June 14, 2013

  Actual Average (KHKY) Record (KHKY)
Temperature  
Mean Temperature 68 °F -  
Max Temperature 81 °F 83 °F 95 °F (1958)
Min Temperature 55 °F 62 °F 52 °F (1968)
Cooling Degree Days 3    
Growing Degree Days 18 (Base 50)    
Moisture  
Dew Point 53 °F    
Average Humidity 58    
Maximum Humidity 97    
Minimum Humidity 30    
Precipitation  
Precipitation 0.00 in - - ()
Sea Level Pressure  
Sea Level Pressure 30.00 in    
Wind  
Wind Speed 6 mph (NNW)    
Max Wind Speed 15 mph    
Max Gust Speed 23 mph    
Visibility 10 miles    
Events      
Averages and records for this station are not official NWS values.
T = Trace of Precipitation, MM = Missing Value Source: NWS Daily Summary

Daily Weather History Graph

Daily Weather History Graph

Search for Another Location

Airport:

Trip Planner

Search our weather history database for the weather conditions in past years. The results will help you decide how hot, cold, wet, or windy it might be!

Date:

Astronomy

Jun. 14, 2013 Rise Set
Actual Time 6:09 AM EDT 8:44 PM EDT
Civil Twilight 5:39 AM EDT 9:14 PM EDT
Nautical Twilight 5:02 AM EDT 9:51 PM EDT
Astronomical Twilight 4:20 AM EDT 10:33 PM EDT
Moon 11:34 AM EDT (6/14) No Moon Set
Length of Visible Light 15h 34m
Length of Day
14h 34m
Waxing Crescent, 30% of the Moon is Illuminated
Jun 14
Waxing Crescent
Jun 16
First Quarter
Jun 23
Full
Jun 30
Last Quarter
Jul 8
New

Hourly Weather History & Observations

Time (EDT) Temp. Dew Point Humidity Pressure Visibility Wind Dir Wind Speed Gust Speed Precip Events Conditions
12:15 AM 72.9 °F 54.3 °F 52% 29.90 in 10.0 mi North 4.6 mph 16.1 mph N/A   Overcast
12:35 AM 72.1 °F 52.2 °F 49% 29.91 in 10.0 mi NNW 9.2 mph - N/A   Overcast
12:55 AM 71.6 °F 51.6 °F 49% 29.92 in 10.0 mi NNW 12.7 mph 17.3 mph N/A   Overcast
1:15 AM 70.7 °F 52.7 °F 53% 29.92 in 10.0 mi NW 9.2 mph - N/A   Overcast
1:35 AM 69.4 °F 52.5 °F 55% 29.93 in 10.0 mi NW 5.8 mph - N/A   Scattered Clouds
1:55 AM 68.2 °F 52.7 °F 58% 29.93 in 10.0 mi NW 5.8 mph - N/A   Clear
2:15 AM 68.4 °F 52.5 °F 57% 29.93 in 10.0 mi NW 4.6 mph 18.4 mph N/A   Clear
2:35 AM 67.8 °F 52.7 °F 58% 29.93 in 10.0 mi Calm Calm - N/A   Clear
2:55 AM 64.2 °F 54.3 °F 70% 29.92 in 10.0 mi Calm Calm - N/A   Clear
3:15 AM 59.7 °F 56.5 °F 89% 29.92 in 10.0 mi NNE 3.5 mph - N/A   Clear
3:35 AM 58.8 °F 55.9 °F 90% 29.91 in 10.0 mi ENE 3.5 mph - N/A   Clear
3:55 AM 58.5 °F 55.8 °F 91% 29.91 in 10.0 mi Calm Calm - N/A   Clear
4:15 AM 59.2 °F 56.5 °F 91% 29.91 in 10.0 mi NNW 3.5 mph - N/A   Clear
4:35 AM 61.9 °F 54.5 °F 77% 29.91 in 10.0 mi NNW 3.5 mph - N/A   Clear
4:55 AM 61.0 °F 55.4 °F 82% 29.92 in 10.0 mi West 5.8 mph - N/A   Clear
5:15 AM 59.9 °F 55.4 °F 85% 29.91 in 10.0 mi Calm Calm - N/A   Scattered Clouds
5:35 AM 56.7 °F 55.0 °F 94% 29.92 in 10.0 mi Calm Calm - N/A   Scattered Clouds
5:55 AM 55.9 °F 55.0 °F 97% 29.93 in 10.0 mi Calm Calm - N/A   Scattered Clouds
6:15 AM 55.8 °F 54.7 °F 96% 29.94 in 10.0 mi Calm Calm - N/A   Clear
6:35 AM 58.8 °F 57.2 °F 94% 29.95 in 10.0 mi West 3.5 mph - N/A   Clear
6:55 AM 61.7 °F 55.6 °F 80% 29.95 in 10.0 mi WSW 8.1 mph - N/A   Clear
7:15 AM 63.1 °F 55.9 °F 77% 29.96 in 10.0 mi WSW 3.5 mph - N/A   Clear
7:35 AM 64.2 °F 55.9 °F 74% 29.96 in 10.0 mi Calm Calm - N/A   Clear
7:55 AM 64.9 °F 56.5 °F 74% 29.98 in 10.0 mi WNW 5.8 mph - N/A   Clear
8:15 AM 68.7 °F 55.2 °F 62% 29.98 in 10.0 mi NW 6.9 mph - N/A   Clear
8:35 AM 70.0 °F 54.5 °F 58% 29.99 in 10.0 mi WNW 10.4 mph - N/A   Clear
8:55 AM 70.7 °F 55.8 °F 59% 29.99 in 10.0 mi NW 8.1 mph - N/A   Clear
9:15 AM 72.3 °F 54.9 °F 54% 30.00 in 10.0 mi West 4.6 mph - N/A   Clear
9:35 AM 73.2 °F 54.7 °F 52% 30.00 in 10.0 mi NNW 6.9 mph - N/A   Clear
9:55 AM 73.6 °F 53.2 °F 49% 30.01 in 10.0 mi NNW 10.4 mph 17.3 mph N/A   Clear
10:15 AM 74.1 °F 53.6 °F 49% 30.00 in 10.0 mi NW 6.9 mph 19.6 mph N/A   Clear
10:35 AM 74.8 °F 53.2 °F 47% 30.00 in 10.0 mi NNW 9.2 mph - N/A   Clear
10:55 AM 75.4 °F 52.0 °F 44% 30.01 in 10.0 mi NNW 10.4 mph 16.1 mph N/A   Clear
11:15 AM 75.9 °F 52.2 °F 43% 30.02 in 10.0 mi NNW 10.4 mph 16.1 mph N/A   Clear
11:35 AM 76.3 °F 52.9 °F 44% 30.02 in 10.0 mi NNW 10.4 mph 16.1 mph N/A   Clear
11:55 AM 76.3 °F 51.6 °F 42% 30.02 in 10.0 mi NNW 6.9 mph - N/A   Clear
12:15 PM 76.8 °F 51.8 °F 42% 30.02 in 10.0 mi NW 9.2 mph - N/A   Scattered Clouds
12:35 PM 77.7 °F 50.5 °F 38% 30.02 in 10.0 mi NW 6.9 mph - N/A   Scattered Clouds
12:55 PM 77.7 °F 49.5 °F 37% 30.02 in 10.0 mi NW 6.9 mph - N/A   Scattered Clouds
1:15 PM 79.2 °F 50.2 °F 36% 30.03 in 10.0 mi WNW 9.2 mph - N/A   Clear
1:35 PM 79.9 °F 48.6 °F 33% 30.03 in 10.0 mi NNW 10.4 mph 21.9 mph N/A   Clear
1:55 PM 79.9 °F 47.3 °F 32% 30.03 in 10.0 mi NNW 15.0 mph 19.6 mph N/A   Clear
2:15 PM 80.1 °F 48.2 °F 33% 30.03 in 10.0 mi NNW 11.5 mph 18.4 mph N/A   Clear
2:35 PM 80.1 °F 47.5 °F 32% 30.02 in 10.0 mi NW 15.0 mph 20.7 mph N/A   Clear
2:55 PM 80.6 °F 46.9 °F 31% 30.02 in 10.0 mi NNW 12.7 mph 21.9 mph N/A   Clear
3:15 PM 80.6 °F 47.1 °F 31% 30.02 in 10.0 mi NNW 15.0 mph 20.7 mph N/A   Clear
3:35 PM 80.8 °F 46.9 °F 30% 30.02 in 10.0 mi NNW 13.8 mph 20.7 mph N/A   Clear
3:55 PM 81.0 °F 47.7 °F 31% 30.02 in 10.0 mi NW 15.0 mph 23.0 mph N/A   Clear
4:15 PM 80.8 °F 48.0 °F 32% 30.02 in 10.0 mi NNW 12.7 mph 18.4 mph N/A   Clear
4:35 PM 80.8 °F 48.0 °F 32% 30.02 in 10.0 mi North 9.2 mph 21.9 mph N/A   Clear
4:55 PM 81.0 °F 48.0 °F 31% 30.02 in 10.0 mi NNW 11.5 mph - N/A   Clear
5:15 PM 80.8 °F 48.6 °F 32% 30.02 in 10.0 mi NNW 12.7 mph 17.3 mph N/A   Clear
5:35 PM 80.4 °F 48.2 °F 32% 30.02 in 10.0 mi NNW 11.5 mph 18.4 mph N/A   Clear
5:55 PM 79.9 °F 48.9 °F 34% 30.02 in 10.0 mi North 8.1 mph - N/A   Clear
6:15 PM 79.7 °F 48.2 °F 33% 30.02 in 10.0 mi NNW 9.2 mph 16.1 mph N/A   Clear
6:35 PM 79.3 °F 48.4 °F 34% 30.03 in 10.0 mi NNW 9.2 mph - N/A   Clear
6:55 PM 78.8 °F 48.7 °F 35% 30.03 in 10.0 mi NNW 4.6 mph - N/A   Clear
7:15 PM 78.8 °F 50.5 °F 37% 30.04 in 10.0 mi NNW 4.6 mph - N/A   Clear
7:35 PM 77.7 °F 50.9 °F 39% 30.04 in 10.0 mi Calm Calm - N/A   Clear
7:55 PM 76.5 °F 51.1 °F 41% 30.04 in 10.0 mi North 4.6 mph - N/A   Clear
8:15 PM 75.2 °F 51.1 °F 43% 30.05 in 10.0 mi NNW 3.5 mph - N/A   Clear
8:35 PM 72.5 °F 53.6 °F 51% 30.05 in 10.0 mi Calm Calm - N/A   Clear
8:55 PM 65.1 °F 59.7 °F 83% 30.06 in 10.0 mi Calm Calm - N/A   Clear
9:15 PM 63.9 °F 58.8 °F 84% 30.06 in 10.0 mi Calm Calm - N/A   Clear
9:35 PM 61.7 °F 58.1 °F 88% 30.07 in 10.0 mi NNW 3.5 mph - N/A   Clear
9:55 PM 59.9 °F 57.6 °F 92% 30.07 in 10.0 mi NNE 3.5 mph - N/A   Clear
10:15 PM 59.9 °F 57.4 °F 91% 30.09 in 10.0 mi Calm Calm - N/A   Clear
10:35 PM 59.4 °F 57.7 °F 94% 30.10 in 10.0 mi Calm Calm - N/A   Clear
10:55 PM 58.5 °F 56.1 °F 92% 30.10 in 10.0 mi Calm Calm - N/A   Clear
11:15 PM 58.5 °F 57.4 °F 96% 30.12 in 10.0 mi Calm Calm - N/A   Clear
11:35 PM 60.3 °F 55.9 °F 86% 30.12 in 10.0 mi North 3.5 mph - N/A   Clear
11:55 PM 62.8 °F 54.7 °F 75% 30.12 in 10.0 mi North 4.6 mph - N/A   Clear